STARLINK-1528 (47620 NORAD) Tracking and Keplerian Element Data
This shows tracking and keplerian element data for the satellite.
Feedback or suggestion? Click here.
Element | Value |
Catalog | 47620 |
Name | STARLINK-1528 |
Epoch Orbit | 989 |
Epoch Day | 106.16668981 |
Epoch Year | 2021 |
RAAN | 180.5962 |
Inclination | 53.0517 |
Eccentricity | 0.0001104 |
Argument of Perigee | 79.3458 |
Mean Anonmoly | 39.3694 |
Mean Motion | 15.06374412 |
Decay Rate | 0.0002832 |
L1 | 1 47620U 21012A 21106.16668981 .00028320 00000-0 19138-2 0 9999 |
L2 | 2 47620 53.0517 180.5962 0001104 79.3458 39.3694 15.06374412 9898 |
Live tracking and technical data element details for STARLINK-1528 (NORAD 47620). STARLINK-1528 can be tracked NOW for your location showing map with azimuth and elevation plus other details from your city location.
Track the satellite on the map from your city or location and see movement details for azimuth, elevation, latitude, longitude, range, height, and movement on the map or in text.
IsCatalogInMostPopularTable: catalog: 47620, numindb: 16
Update: records affected: 1
GetName: 47620 STARLINK-1528
Hit Count: updated at: Fri, 16 Apr 2021 10:17:02 GMT